sat.trackr.live / text

‹ back to catalog

STARLINK-36130

NORAD 66931 · 2025-286G

PAYLOAD ACTIVE UNKNOWN

§ Identity

Operator
Country
US
Launch date
2025-12-07
Launch site
AFWTR
Launch vehicle
Mass (kg)
RCS (m²)

Purposes: comms

External: N2YO · Heavens-Above · Gunter

§ Orbital elements

Epoch: 2026-09-20T11:12:21.436128Z

Period
93.85 min
Inclination
53.1595°
Eccentricity
0.0001138
Mean motion
15.34380361 rev/d
Perigee alt
462.0 km
Apogee alt
463.5 km
Semi-major
6,840.9 km
B*
-4.6957e-5
RAAN
169.7908°
Arg perigee
82.0339°
Mean anomaly
278.0793°
Rev number
4,529

§ Raw data

STARLINK-361301 66931U 25286G   26263.46691477 -.00001961  00000+0 -46957-4 0  99942 66931  53.1595 169.7908 0001138  82.0339 278.0793 15.34380361 45293

JSON: /api/v1/satellites/66931 · /tle

For live sub-satellite position, see the globe view (requires WebGL).

§ Visibility from observer

Set your observer location to see the next 7 days of passes ≥ 10°. The values pass through the URL so the page stays shareable.

No JS? Fill the form by hand. The geolocation button needs JavaScript.